Location: *
(37.9500°N, 27.3666°E)
Time: 23:35:50
(UTC+00:00)

Cosmos 614 Rocket - Pass Details

Date: 06 June 2022
Orbit: 732 x 764 km, 74.1° (Epoch: 01 July)

Event Time Altitude Azimuth Distance (km) Brightness Sun altitude
Rises 22:26:36 0° 341° (NNW) 3,227 8.2 -29.2°
Reaches altitude 10° 22:28:58 10° 342° (NNW) 2,301 7.3 -29.2°
Enters shadow 22:33:26 66° 344° (NNW) 835 4.2 -29.1°
